Regional Weather Roundup
Issued by NWS Albany, NY

Home | Current Version | Previous Version | Text Only | Print | Product List | Glossary On
Versions: 1 2 3 4 5 6 7 8 9 10 11 12 13 14 15 16 17 18 19 20 21 22 23 24 25 26 27 28 29 30 31 32 33 34 35 36 37 38 39 40 41 42 43 44 45 46 47 48 49 50
000
ASUS41 KALY 310910
RWRALY

NEW YORK STATE HOURLY WEATHER ROUNDUP
NATIONAL WEATHER SERVICE ALBANY NY
500 AM EDT FRI JUL 31 2015

NOTE: "FAIR" INDICATES FEW OR NO CLOUDS BELOW 12,000 FEET WITH NO
SIGNIFICANT WEATHER AND/OR NO OBSTRUCTIONS TO VISIBILITY.

NYZ032-033-038>043-046>054-057>066-NYZ062>081-311000-
EAST


CITY           SKY/WX    TMP DP  RH WIND       PRES   REMARKS
ALBANY         PTCLDY    68  59  73 W8        29.81S
GLENS FALLS    PTCLDY    59  57  93 N3        29.79S FOG
POUGHKEEPSIE   CLEAR     64  62  93 CALM      29.83S FOG
NEWBURGH       PTCLDY    66  64  94 W6        29.86S
MONTGOMERY     CLEAR     68  60  75 W8        29.86R
WHITE PLAINS   CLEAR     70  65  84 W7        29.85R
ISLIP          CLEAR     72  71  97 CALM      29.82R
NEW YORK CITY  PTCLDY    75  63  66 NW8       29.84R
CENTRAL PARK   MOCLDY    75  62  64 NW3       29.88R
$$

NYZ005>009-017-018-044>046-055-056-311000-
CENTRAL


CITY           SKY/WX    TMP DP  RH WIND       PRES   REMARKS
FULTON         CLEAR     64  61  90 W5        29.84R
SYRACUSE       PTCLDY    69  61  75 W10       29.83S
ROME           CLEAR     61  59  93 CALM      29.84S
ELMIRA         CLEAR     60  58  92 SW6       29.90R
BINGHAMTON     PTCLDY    60  56  86 W6        29.90S
MONTICELLO     CLEAR     61  57  88 SW3       29.91S
$$

NYZ026>034-041>043-311000-
NORTH


CITY           SKY/WX    TMP DP  RH WIND       PRES   REMARKS
WATERTOWN      CLEAR     67  58  72 W8        29.81R
FORT DRUM      NOT AVBL
MASSENA        CLEAR     61  55  81 SW6       29.74S
SARANAC LAKE   CLEAR     57  54  89 W3        29.79S
PLATTSBURGH    CLEAR     61  58  90 S3        29.73S
$$

NYZ001>004-010>016-019>021-311000-
WEST


CITY           SKY/WX    TMP DP  RH WIND       PRES   REMARKS
NIAGARA FALLS  CLEAR     63  57  81 W5        29.88S
BUFFALO        CLEAR     67  57  70 W6        29.89S
DUNKIRK        CLEAR     64  61  90 S5        29.92R
JAMESTOWN      CLEAR     64  57  77 W5        29.97R
WELLSVILLE     CLEAR     63  56  78 MISG      29.97S
ROCHESTER      CLEAR     67  59  75 W6        29.88R
PENN YAN       CLEAR     64  59  83 S7        29.89S
$$

             KEY
       WCI = WIND CHILL INDEX
       VSB = VISIBILITY
       HX  = HEAT INDEX
$$



USA.gov is the U.S. government's official web portal to all federal, state and local government web resources and services.